(196793) = 2003 SL196

Discovered at Palomar on 2003-09-20 by NEAT.

Orbit

Orbit type: Main Belt

Note: WebGL enabled browser required.

epoch2024-03-31.0
epoch JD2460400.5
perihelion date2024-03-19.44262
perihelion JD2460388.94262
argument of perihelion (°)68.82508
ascending node (°)8.55652
inclination (°)9.41115
eccentricity0.0062119
perihelion distance (AU)2.8844125
Tisserand w.r.t. Jupiter3.3
ΔV w.r.t. Earth (km/sec)11.0
semimajor axis (AU)2.9024421
mean anomaly (°)2.30366
mean daily motion (°/day)0.19932350
aphelion distance (AU)2.920
period (years)4.94
P-vector [x]0.22032406
P-vector [y]0.82328265
P-vector [z]0.52312807
Q-vector [x]-0.97512328
Q-vector [y]0.17252421
Q-vector [z]0.13917611
absolute magnitude15.31
phase slope0.15
uncertainty0
referenceMPEC 2024-C163
observations used851
oppositions19
arc length (days)8741
first opposition used2000
last opposition used2024
residual rms (arc-secs)0.74
perturbers coarse indicatorM-v
perturbers precise indicator003Ek
first observation date used2000-01-29.0
last observation date used2024-01-04.0
computer nameMPCLINUX
JD of orbit computation2456639.704843
perihelion JD uncertainty (days)3.8685E-03
argument of perihelion uncertainty (°)7.7816E-04
ascending node uncertainty (°)4.2679E-05
inclination uncertainty (°)1.0816E-05
eccentricity uncertainty 9.1041E-08
perihelion distance uncertainty (AU)2.7045E-07
Minimum Orbit Intersection Distances (in AU)
for orbit epoch: 2460200.5, reference: E2024-CG3
Mercury2.46196
Venus2.17206
Earth1.89666
Mars1.2404
Jupiter2.05493
Saturn6.23599
Uranus15.5461
Neptune26.9543

Observations

870 total observations over interval: 2000 01 29.24689 – 2024 01 04.362600
These data are available for download (format description).

Date (UT) J2000 RA J2000 Dec Magn Location Ref
2000 01 29.24689 07 58 22.55 +34 09 17.3 19.1   704 – Lincoln Laboratory ETS, New Mexico MPS 127952
2000 01 29.26240 07 58 21.70 +34 09 17.8 19.1   704 – Lincoln Laboratory ETS, New Mexico MPS 127952
2000 01 29.27870 07 58 20.65 +34 09 18.3 19.1   704 – Lincoln Laboratory ETS, New Mexico MPS 127952
2002 07 27.29703 20 18 07.46 -33 23 23.6 19.1 R 644 – Palomar Mountain/NEAT MPS 306511
2002 07 27.31881 20 18 06.13 -33 23 25.0 18.8 R 644 – Palomar Mountain/NEAT MPS 306511
2003 09 20.48302 02 12 03.74 +16 57 31.8 19.4   644 – Palomar Mountain/NEAT MPS 85555
2003 09 20.48446 02 12 03.71 +16 57 31.8 19.8   644 – Palomar Mountain/NEAT MPS 85555
2003 09 20.49422 02 12 03.40 +16 57 32.4 19.7   644 – Palomar Mountain/NEAT MPS 85555
2003 09 20.49560 02 12 03.34 +16 57 33.0 19.7   644 – Palomar Mountain/NEAT MPS 85555
2003 09 20.50536 02 12 03.09 +16 57 33.6 19.6   644 – Palomar Mountain/NEAT MPS 85555
2003 09 20.50677 02 12 03.02 +16 57 33.6 20.0   644 – Palomar Mountain/NEAT MPS 85555
2003 09 21.36627 02 11 37.72 +16 58 37.9 19.8 R 699 – Lowell Observatory-LONEOS MPS 85555
2003 09 21.37950 02 11 37.33 +16 58 38.8   699 – Lowell Observatory-LONEOS MPS 85555
2003 09 21.39280 02 11 36.89 +16 58 38.5   699 – Lowell Observatory-LONEOS MPS 85555
2003 09 21.40604 02 11 36.53 +16 58 40.8   699 – Lowell Observatory-LONEOS MPS 85555
2003 09 27.30122 02 08 15.04 +17 03 39.1 20.0   704 – Lincoln Laboratory ETS, New Mexico MPS 86335
2003 09 27.31510 02 08 14.47 +17 03 39.6 19.7   704 – Lincoln Laboratory ETS, New Mexico MPS 86335
2003 09 27.34131 02 08 13.38 +17 03 39.4 20.2   704 – Lincoln Laboratory ETS, New Mexico MPS 86335
2003 09 27.40144 02 08 11.06 +17 03 42.0 20.1 V 691 – Steward Observatory, Kitt Peak-Spacewatch MPS 86335
2003 09 27.43054 02 08 09.90 +17 03 42.7 19.9 V 691 – Steward Observatory, Kitt Peak-Spacewatch MPS 86335
2003 09 27.45732 02 08 08.84 +17 03 43.4 19.9 V 691 – Steward Observatory, Kitt Peak-Spacewatch MPS 86335
2003 10 17.41358 01 52 11.55 +16 51 08.3 19.7 V 691 – Steward Observatory, Kitt Peak-Spacewatch MPS 87354
2003 10 17.44190 01 52 09.97 +16 51 05.3 19.9 V 691 – Steward Observatory, Kitt Peak-Spacewatch MPS 87354
2003 10 17.46872 01 52 08.48 +16 51 02.7 19.7 V 691 – Steward Observatory, Kitt Peak-Spacewatch MPS 87354
2003 10 20.22900 01 49 36.90 +16 46 10.3 18.9   644 – Palomar Mountain/NEAT MPS 88235
2003 10 20.29479 01 49 33.16 +16 46 03.4 18.8   644 – Palomar Mountain/NEAT MPS 88235
2003 10 20.36023 01 49 29.43 +16 45 55.5 19.0   644 – Palomar Mountain/NEAT MPS 88235
2003 10 25.26109 01 44 57.64 +16 35 50.4 18.8   704 – Lincoln Laboratory ETS, New Mexico MPS 88235
2003 10 25.27316 01 44 56.92 +16 35 48.7 19.0   704 – Lincoln Laboratory ETS, New Mexico MPS 88235
2003 10 25.28557 01 44 56.24 +16 35 46.9 19.1   704 – Lincoln Laboratory ETS, New Mexico MPS 88235
2003 10 25.29796 01 44 55.57 +16 35 45.2 19.5   704 – Lincoln Laboratory ETS, New Mexico MPS 88235
2003 10 25.31022 01 44 54.81 +16 35 43.3 19.1   704 – Lincoln Laboratory ETS, New Mexico MPS 88235
2003 10 29.14030 01 41 24.98 +16 26 51.9 19.1 R 699 – Lowell Observatory-LONEOS MPS 90531
2003 10 29.16025 01 41 23.93 +16 26 47.8   699 – Lowell Observatory-LONEOS MPS 90531
2003 10 29.18017 01 41 22.79 +16 26 45.6   699 – Lowell Observatory-LONEOS MPS 90531
2003 10 29.20012 01 41 21.65 +16 26 42.6   699 – Lowell Observatory-LONEOS MPS 90531
2003 11 20.21844 01 24 37.80 +15 33 42.1 20.2   704 – Lincoln Laboratory ETS, New Mexico MPS 90999
2003 11 20.23127 01 24 37.37 +15 33 42.3 20.4   704 – Lincoln Laboratory ETS, New Mexico MPS 90999
2003 11 20.24426 01 24 36.88 +15 33 39.0 19.7   704 – Lincoln Laboratory ETS, New Mexico MPS 90999
2003 11 20.25728 01 24 36.41 +15 33 39.4 20.1   704 – Lincoln Laboratory ETS, New Mexico MPS 90999
2003 11 22.10195 01 23 37.15 +15 30 00.4 19.9 V 691 – Steward Observatory, Kitt Peak-Spacewatch MPS 91835
2003 11 22.13062 01 23 36.25 +15 29 57.2 20.3 V 691 – Steward Observatory, Kitt Peak-Spacewatch MPS 91835
2003 11 22.16026 01 23 35.27 +15 29 53.6 20.0 V 691 – Steward Observatory, Kitt Peak-Spacewatch MPS 91835
2003 11 24.18647 01 22 35.55 +15 26 12.1 19.9   704 – Lincoln Laboratory ETS, New Mexico MPS 91835
2003 11 24.20100 01 22 35.11 +15 26 10.7 19.9   704 – Lincoln Laboratory ETS, New Mexico MPS 91835
2003 11 24.21330 01 22 34.75 +15 26 09.6 20.2   704 – Lincoln Laboratory ETS, New Mexico MPS 91835
2003 11 24.23819 01 22 33.97 +15 26 05.9 19.9   704 – Lincoln Laboratory ETS, New Mexico MPS 91835
2004 12 21.40859 08 58 52.26 +30 18 37.4 19.3 R 703 – Catalina Sky Survey MPS 127180
2004 12 21.42053 08 58 51.98 +30 18 40.1 19.5 R 703 – Catalina Sky Survey MPS 127180
2004 12 21.43227 08 58 51.58 +30 18 43.4 19.2 R 703 – Catalina Sky Survey MPS 127180
2004 12 21.44407 08 58 51.31 +30 18 46.3 19.2 R 703 – Catalina Sky Survey MPS 127180
2005 02 03.13790 08 21 41.78 +32 31 31.8 19.3 R 699 – Lowell Observatory-LONEOS MPS 127180
2005 02 03.15835 08 21 40.38 +32 31 32.4   699 – Lowell Observatory-LONEOS MPS 127180
2005 02 03.17873 08 21 39.21 +32 31 30.8   699 – Lowell Observatory-LONEOS MPS 127180
2005 02 03.19916 08 21 38.00 +32 31 34.1   699 – Lowell Observatory-LONEOS MPS 127180
2005 02 04.26892 08 20 35.16 +32 31 52.3 19.6 R 699 – Lowell Observatory-LONEOS MPS 127952
2005 02 04.29333 08 20 33.65 +32 31 50.4   699 – Lowell Observatory-LONEOS MPS 127952
2005 02 04.31776 08 20 32.21 +32 31 50.4   699 – Lowell Observatory-LONEOS MPS 127952
2005 02 04.34223 08 20 30.78 +32 31 50.2   699 – Lowell Observatory-LONEOS MPS 127952
2006 04 21.66382 13 58 36.66 -18 26 58.2 19.3 V E12 – Siding Spring Survey MPS 169157
2006 04 21.67424 13 58 35.97 -18 26 56.2 19.0 V E12 – Siding Spring Survey MPS 169157
2006 04 21.68470 13 58 35.36 -18 26 56.5 19.1 V E12 – Siding Spring Survey MPS 169157
2006 04 21.69516 13 58 34.78 -18 26 53.7 19.2 V E12 – Siding Spring Survey MPS 169157
2007 07 15.59301 20 58 01.84 -30 44 15.9 19.5 V E12 – Siding Spring Survey MPS 211988
2007 07 15.60643 20 58 01.27 -30 44 19.3 19.2 V E12 – Siding Spring Survey MPS 211988
2007 07 15.61928 20 58 00.55 -30 44 21.9 19.7 V E12 – Siding Spring Survey MPS 211988
2007 07 15.63285 20 57 59.86 -30 44 24.4 19.7 V E12 – Siding Spring Survey MPS 211988
2008 09 22.42425 02 31 08.41 +19 32 06.8 19.8 V 691 – Steward Observatory, Kitt Peak-Spacewatch MPS 256628
2008 09 22.44187 02 31 07.94 +19 32 08.7 19.8 V 691 – Steward Observatory, Kitt Peak-Spacewatch MPS 256628
2008 09 22.45947 02 31 07.45 +19 32 10.5 19.8 V 691 – Steward Observatory, Kitt Peak-Spacewatch MPS 256628
2008 10 08.38177 02 21 18.39 +19 47 06.0 19.3 V G96 – Mt. Lemmon Survey MPS 259192
2008 10 08.38714 02 21 18.10 +19 47 06.0 19.4 V G96 – Mt. Lemmon Survey MPS 259192
2008 10 08.39241 02 21 17.82 +19 47 05.9 19.4 V G96 – Mt. Lemmon Survey MPS 259192
2008 10 08.39770 02 21 17.60 +19 47 06.1 19.4 V G96 – Mt. Lemmon Survey MPS 259192
2008 10 27.25432 02 04 35.74 +19 27 09.4 19.4   704 – Lincoln Laboratory ETS, New Mexico MPS 261425
2008 10 27.26585 02 04 35.10 +19 27 07.1 19.6   704 – Lincoln Laboratory ETS, New Mexico MPS 261425
2008 10 27.27743 02 04 34.41 +19 27 06.5 19.4   704 – Lincoln Laboratory ETS, New Mexico MPS 261425
2008 10 27.28897 02 04 33.69 +19 27 06.2 19.3   704 – Lincoln Laboratory ETS, New Mexico MPS 261425
2008 10 27.30051 02 04 33.00 +19 27 02.9 19.7   704 – Lincoln Laboratory ETS, New Mexico MPS 261425
2008 10 30.43616 02 01 36.44 +19 20 27.4 19.3 V G96 – Mt. Lemmon Survey MPS 261425
2008 10 30.44300 02 01 36.04 +19 20 26.4 19.1 V G96 – Mt. Lemmon Survey MPS 261425
2008 10 30.44983 02 01 35.65 +19 20 25.5 19.1 V G96 – Mt. Lemmon Survey MPS 261425
2008 10 30.45672 02 01 35.25 +19 20 24.3 19.1 V G96 – Mt. Lemmon Survey MPS 261425
2008 11 02.25204 01 59 00.26 +19 14 01.0 19.6   704 – Lincoln Laboratory ETS, New Mexico MPS 263129
2008 11 02.26378 01 58 59.61 +19 13 58.7 20.2   704 – Lincoln Laboratory ETS, New Mexico MPS 263129
2008 11 02.27571 01 58 58.89 +19 13 58.0 19.6   704 – Lincoln Laboratory ETS, New Mexico MPS 263129
2008 11 02.29964 01 58 57.59 +19 13 54.5 19.8   704 – Lincoln Laboratory ETS, New Mexico MPS 263129
2008 11 18.07122 01 45 58.52 +18 33 30.0 19.8 V 691 – Steward Observatory, Kitt Peak-Spacewatch MPS 266314
